Regional Weather Roundup
Issued by NWS

Home | Current Version | Previous Version | Graphics & Text | Print | Product List | Glossary On
Versions: 1 2 3 4 5 6 7 8 9 10 11 12 13 14 15 16 17 18 19 20 21 22 23 24 25 26 27 28 29 30 31 32 33 34 35 36 37 38 39 40 41 42 43 44 45 46 47 48 49 50
096
ASUS45 KPSR 290610
RWRAZ

ARIZONA HOURLY REGIONAL WEATHER ROUNDUP
NATIONAL WEATHER SERVICE PHOENIX AZ
1100 PM MST FRI APR 28 2017

NOTE: FAIR INDICATES FEW OR NO CLOUDS BELOW 12,000 FEET WITH NO
SIGNIFICANT WEATHER AND/OR OBSTRUCTIONS TO VISIBILITY.

AZZ001>003-036-290700-
NORTHWEST ARIZONA

CITY           SKY/WX    TMP DP  RH WIND       PRES   REMARKS
BULLHEAD CITY  CLEAR     68  19  15 N18       29.88R
KINGMAN        CLEAR     48  32  53 N12       29.93S
6HR MIN TEMP:  46; 6HR MAX TEMP:  63;

$$

AZZ004>008-015-016-018-290700-
NORTH CENTRAL ARIZONA

CITY           SKY/WX    TMP DP  RH WIND       PRES   REMARKS
GRAND CANYON   CLEAR     32  13  45 N3        29.92S
6HR MIN TEMP:  26; 6HR MAX TEMP:  46; 6HR PCP: TRACE;

WILLIAMS       CLEAR     28  10  47 CALM      29.91F
PRESCOTT       CLEAR     39  15  37 CALM      29.91R
6HR MIN TEMP:  39; 6HR MAX TEMP:  57;

FLAGSTAFF      CLEAR     30  10  43 CALM      29.88S
6HR MIN TEMP:  30; 6HR MAX TEMP:  45;

PAYSON         PTCLDY    45  14  29 N6G12     29.88S
PAGE           CLEAR     47  21  35 W7        29.88S
6HR MIN TEMP:  47; 6HR MAX TEMP:  54;

$$

AZZ009>014-017-290700-
NORTHEAST ARIZONA

CITY           SKY/WX    TMP DP  RH WIND       PRES   REMARKS
WINSLOW        MOCLDY    44  11  26 NW12      29.86S
6HR MIN TEMP:  42; 6HR MAX TEMP:  55;

SAINT JOHNS    CLOUDY    36  31  82 S9        29.83F WCI  29
6HR MIN TEMP:  35; 6HR MAX TEMP:  42; 6HR PCP:  0.07;

WINDOW ROCK    CLEAR     29  19  66 CALM      29.84S
6HR MIN TEMP:  29; 6HR MAX TEMP:  45;

SHOW LOW       MOCLDY    34  18  51 CALM      29.85F
$$

AZZ540-542>544-546-548-290700-
GREATER PHOENIX AREA

CITY           SKY/WX    TMP DP  RH WIND       PRES   REMARKS
PHOENIX        CLEAR     68  12  11 N20G28    29.77R
6HR MIN TEMP:  68; 6HR MAX TEMP:  83;

BUCKEYE        CLEAR     63   5  10 N7        29.81R
LUKE AFB       CLEAR     65  17  16 NW7       29.79R
6HR MIN TEMP:  64; 6HR MAX TEMP:  80;

DEER VALLEY    CLEAR     65  10  11 N16G24    29.79R
6HR MIN TEMP:  64; 6HR MAX TEMP:  80;

SCOTTSDALE     CLEAR     65  13  13 VRB5      29.79R
6HR MIN TEMP:  65; 6HR MAX TEMP:  80; 6HR PCP: TRACE;

MESA-GATEWAY   CLEAR     64  10  12 NW15      29.78R
$$

AZZ539-553-290700-
SOUTHWEST MARICOPA COUNTY AND PINAL COUNTY

CITY           SKY/WX    TMP DP  RH WIND       PRES   REMARKS
CASA GRANDE    CLEAR     66  11  11 NW18G31   29.78R
6HR MIN TEMP:  66; 6HR MAX TEMP:  82;

GILA BEND      FAIR      68   2   7 N12       29.78R
6HR MIN TEMP:  67; 6HR MAX TEMP:  83;

$$

AZZ503-504-507>509-290700-
SOUTHEAST ARIZONA

CITY           SKY/WX    TMP DP  RH WIND       PRES   REMARKS
TUCSON         CLEAR     65   1   8 NW16G25   29.82R
6HR MIN TEMP:  65; 6HR MAX TEMP:  80;

DAVIS-MONTHAN  PTCLDY    63   1   8 NW9       29.80R
6HR MIN TEMP:  63; 6HR MAX TEMP:  78;

NOGALES        CLOUDY    62  10  13 NW13G18   29.83R
6HR MIN TEMP:  62; 6HR MAX TEMP:  77;

SIERRA VISTA   MOCLDY    57   1  10 W23       29.84R
6HR MIN TEMP:  57; 6HR MAX TEMP:  73;

DOUGLAS        PTCLDY    64  40  41 W18G28    29.78R
6HR MIN TEMP:  64; 6HR MAX TEMP:  78;

SAFFORD        PTCLDY    60  10  14 NW22G36   29.68R
6HR MIN TEMP:  60; 6HR MAX TEMP:  76; 6HR PCP: TRACE;

$$

AZZ532-290700-
SOUTHWEST ARIZONA

CITY           SKY/WX    TMP DP  RH WIND       PRES   REMARKS
YUMA           PTCLDY    73   9   8 NE17      29.77R
6HR MIN TEMP:  73; 6HR MAX TEMP:  87;

$$

CAZ041-043-047-048-061-525>527-560>570-290700-
SOUTHERN CALIFORNIA

CITY           SKY/WX    TMP DP  RH WIND       PRES   REMARKS
DOWNTOWN L.A.  CLEAR     75  26  16 VRB6      29.82R
6HR MIN TEMP:  74; 6HR MAX TEMP:  84;

L.A. AIRPORT   CLEAR     72  29  20 N15G23    29.82R
6HR MIN TEMP:  64; 6HR MAX TEMP:  78;

SAN DIEGO      PTCLDY    65  58  78 S9        29.84R
6HR MIN TEMP:  65; 6HR MAX TEMP:  72;

BURBANK        CLEAR     68  26  20 N21       29.87R
6HR MIN TEMP:  68; 6HR MAX TEMP:  80;

ONTARIO        PTCLDY    72  10   9 NE18G29   29.85R
6HR MIN TEMP:  67; 6HR MAX TEMP:  80;

RIVERSIDE      CLEAR     72  19  13 NE13G23   29.85R
6HR MIN TEMP:  69; 6HR MAX TEMP:  81;

PALM SPRINGS   CLEAR     76   8   7 NW9       29.89R
6HR MIN TEMP:  76; 6HR MAX TEMP:  89;

EL CENTRO NAS  CLEAR     64  17  16 N3        29.80R
6HR MIN TEMP:  64; 6HR MAX TEMP:  88;

IMPERIAL       CLEAR     70  24  17 NE3       29.78R
6HR MIN TEMP:  70; 6HR MAX TEMP:  88;

BLYTHE         CLEAR     71   9   9 N17       29.83R
6HR MIN TEMP:  71; 6HR MAX TEMP:  85;

NEEDLES        CLEAR     68  18  14 N22       29.88R
6HR MIN TEMP:  67; 6HR MAX TEMP:  80;

$$

NVZ020-UTZ003-290700-
SOUTHERN NEVADA-UTAH

CITY           SKY/WX    TMP DP  RH WIND       PRES   REMARKS
LAS VEGAS      CLEAR     61  12  14 N16       29.96R
6HR MIN TEMP:  61; 6HR MAX TEMP:  70;

SALT LAKE CITY MOCLDY    41  35  79 N7        30.03S
6HR MIN TEMP:  40; 6HR MAX TEMP:  46; 6HR PCP:  0.01;

$$

NMZ009-TXZ055-290700-
NEW MEXICO-WEST TEXAS

CITY           SKY/WX    TMP DP  RH WIND       PRES   REMARKS
ALBUQUERQUE    CLOUDY    39  34  82 SE6       29.85F WCI  35
6HR MIN TEMP:  39; 6HR MAX TEMP:  42; 6HR PCP:  0.03;

EL PASO        MOCLDY    72  41  32 SW18G28   29.64F
6HR MIN TEMP:  72; 6HR MAX TEMP:  82;

$$


........................KEY........................
SKY/WX - SKY CONDITION/WEATHER
TMP    - TEMPERATURE IN FAHRENHEIT
DP     - DEW POINT IN FAHRENHEIT
RH     - RELATIVE HUMIDITY IN PERCENT
WIND   - DIRECTION AND SPEED IN MILES PER HOUR (MPH)
VRB    - VARIABLE WIND DIRECTION
PRES   - MEAN SEA LEVEL PRESSURE IN INCHES OF MERCURY
         F - FALLING PRESSURE   R - RISING PRESSURE
         S - STEADY PRESSURE
VSB    - VISIBILITY IN MILES
HX     - HEAT INDEX IN FAHRENHEIT
WCI    - WIND CHILL INDEX IN FAHRENHEIT
TC     - TEMPERATURE IN CELSIUS WHICH IS ALSO KNOWN AS
         TEMPERATURE IN CENTIGRADE
AFB    - AIR FORCE BASE
         LUKE AFB IS LUKE AIR FORCE BASE
         DAVIS-MONTHAN IS DAVIS-MONTHAN AIR FORCE BASE
NAS    - NAVAL AIR STATION
         EL CENTRO NAS IS EL CENTRO NAVAL AIR STATION
N/A    - NOT AVAILABLE





USA.gov is the U.S. government's official web portal to all federal, state and local government web resources and services.